Home > Weather > Uster > Past weeks

Flag for Switzerland Past Weather in Uster, Zurich, Switzerland — Yesterday and Last 2 Weeks

Now
59 °F

Cool.


Feels Like: 59 °F
Forecast: 46 / 76 °F
Wind: 2 mph from West

Location: Zuerich-Fluntern

Current Time: May 26, 2016 at 12:51:42 AM

Latest Report: May 26, 2016 at 12:00 AM


Visibility: N/A

Pressure: 29.98 "Hg

Humidity: 72%

Dew Point: 49 °F

Location of UsterLocation

Past Weather in Uster — Graph

°F

Uster Temperature Yesterday

Maximum temperature yesterday: 68 °F (at 4:00 PM)
Minimum temperature yesterday: 46 °F (at 5:00 AM)
Average temperature yesterday: 56 °F

High & Low Weather Summary for the Past Weeks

 TemperatureHumidityPressure
High78 °F (May 22, 2:00 PM)97% (May 13, 12:00 PM)30.23 "Hg (May 13, 12:00 PM)
Low42 °F (May 23, 10:00 AM)28% (May 21, 4:00 PM)29.47 "Hg (May 11, 7:00 PM)
Average53 °F77%29.91 "Hg
* Reported May 10 11:00 PM — May 25 11:00 PM, Uster, Weather by CustomWeather, © 2016

Note: Actual official high and low records may vary slightly from our data, if they occured in-between our weather recording intervals... More about our weather records

Advertising

Uster Weather History for the Previous 24 Hours

Scroll right to see more
 ConditionsComfort  
Time TempWeatherWind HumidityBarometerVisibility
11:00 PM
Wed, May 25
60 °FCool.3 mph68%29.97 "HgN/A
10:00 PM58 °FCool.3 mph80%29.97 "HgN/A
9:00 PM62 °FRefreshingly cool.6 mph55%29.94 "HgN/A
8:00 PM63 °FOvercast.6 mph50%29.93 "HgN/A
7:00 PM66 °FMild.6 mph46%29.91 "HgN/A
6:00 PM66 °FMild.3 mph48%29.90 "HgN/A
5:00 PM67 °FMild.6 mph46%29.89 "HgN/A
4:00 PM68 °FMild.3 mph46%29.88 "HgN/A
3:00 PM65 °FMild.3 mph46%29.89 "HgN/A
2:00 PM65 °FMild.3 mph66%29.90 "HgN/A
1:00 PM60 °FCool.3 mph68%29.93 "HgN/A
12:00 PM57 °FCool.3 mph70%29.95 "HgN/A
11:00 AM55 °FCool.3 mph75%29.96 "HgN/A
9:00 AM51 °FCool.3 mph83%29.97 "HgN/A
8:00 AM48 °FCool.6 mph90%29.98 "HgN/A
7:00 AM46 °FCool.8 mph94%29.98 "HgN/A
6:00 AM46 °FCool.7 mph93%29.97 "HgN/A
5:00 AM46 °FCool.8 mph93%29.96 "HgN/A
4:40 AM46 °FCool.8 mph93%29.96 "HgN/A
4:00 AM47 °FCool.8 mph92%29.96 "HgN/A
3:00 AM47 °FCool.7 mph90%29.96 "HgN/A
2:00 AM49 °FCool.8 mph87%29.96 "HgN/A
1:00 AM51 °FCool.2 mph84%29.97 "HgN/A
12:00 AM51 °FCool.6 mph84%29.97 "HgN/A
Weather by CustomWeather, © 2016

See weather overviewHow to use our weather pages